TimeCET,TemperatureF,Dew PointF,Humidity,Sea Level PressureIn,VisibilityMPH,Wind Direction,Wind SpeedMPH,Gust SpeedMPH,PrecipitationIn,Events,Conditions,WindDirDegrees,DateUTC
12:00 AM,42,41,94,30.20,,Calm,Calm,,,,,,2012-11-15 23:00:00
12:20 AM,41.0,41.0,100,30.15,0.7,Variable,2.3,-,N/A,,Overcast,0,2012-11-15 23:20:00
12:50 AM,41.0,41.0,100,30.15,1.1,Variable,1.2,-,N/A,,Overcast,0,2012-11-15 23:50:00
1:00 AM,42,41,93,30.19,1,South,2.3,,,Rain,Light Drizzle,180,2012-11-16 00:00:00
1:20 AM,41.0,41.0,100,30.15,1.2,SE,2.3,-,N/A,,Overcast,140,2012-11-16 00:20:00
1:50 AM,41.0,41.0,100,30.15,1.6,Variable,2.3,-,N/A,,Overcast,0,2012-11-16 00:50:00
2:00 AM,41,40,95,30.19,,North,2.3,,,,,350,2012-11-16 01:00:00
2:50 AM,41.0,41.0,100,30.15,1.6,Calm,Calm,-,N/A,,Overcast,0,2012-11-16 01:50:00
3:00 AM,41,40,94,30.19,,NNE,1.2,,,,,20,2012-11-16 02:00:00
3:20 AM,41.0,41.0,100,30.12,1.6,Calm,Calm,-,N/A,,Overcast,0,2012-11-16 02:20:00
3:50 AM,41.0,41.0,100,30.12,1.2,Variable,2.3,-,N/A,,Overcast,0,2012-11-16 02:50:00
4:20 AM,41.0,39.2,93,30.12,1.2,Variable,2.3,-,N/A,,Overcast,0,2012-11-16 03:20:00
4:50 AM,39.2,39.2,100,30.12,1.2,Variable,2.3,-,N/A,,Overcast,0,2012-11-16 03:50:00
5:00 AM,40,39,96,30.17,,NE,2.3,,,,,40,2012-11-16 04:00:00
5:20 AM,41.0,39.2,93,30.12,1.6,Calm,Calm,-,N/A,,Overcast,0,2012-11-16 04:20:00
5:50 AM,39.2,39.2,100,30.12,1.9,Calm,Calm,-,N/A,,Overcast,0,2012-11-16 04:50:00
6:00 AM,40,39,94,30.17,,SE,2.3,,,,,130,2012-11-16 05:00:00
6:20 AM,39.2,39.2,100,30.12,-9999.0,Variable,2.3,-,N/A,,Overcast,0,2012-11-16 05:20:00
6:50 AM,39.2,39.2,100,30.12,2.8,Variable,1.2,-,N/A,,Overcast,0,2012-11-16 05:50:00
7:00 AM,40,39,95,30.17,3,SSE,3.5,,,Rain,Light Drizzle,160,2012-11-16 06:00:00
7:20 AM,39.2,39.2,100,30.12,-9999.0,South,3.5,-,N/A,,Overcast,170,2012-11-16 06:20:00
7:50 AM,41.0,39.2,93,30.12,2.5,Variable,2.3,-,N/A,,Overcast,0,2012-11-16 06:50:00
8:00 AM,41,39,90,30.17,,NNE,2.3,,,,,30,2012-11-16 07:00:00
8:20 AM,41.0,39.2,93,30.12,-9999.0,Variable,2.3,-,N/A,,Overcast,0,2012-11-16 07:20:00
8:50 AM,41.0,39.2,93,30.12,2.2,Variable,2.3,-,N/A,,Overcast,0,2012-11-16 07:50:00
9:00 AM,40,39,96,30.18,,East,2.3,,,,,90,2012-11-16 08:00:00
9:20 AM,41.0,39.2,93,30.12,2.8,Variable,1.2,-,N/A,,Overcast,0,2012-11-16 08:20:00
9:50 AM,41.0,41.0,100,30.12,2.8,Variable,2.3,-,N/A,,Overcast,0,2012-11-16 08:50:00
10:20 AM,41.0,41.0,100,30.12,2.8,ENE,3.5,-,N/A,,Overcast,70,2012-11-16 09:20:00
10:50 AM,41.0,41.0,100,30.12,2.8,Variable,1.2,-,N/A,,Overcast,0,2012-11-16 09:50:00
11:00 AM,42,39,87,30.18,,Calm,Calm,,,,,,2012-11-16 10:00:00
11:20 AM,41.0,41.0,100,30.12,2.5,Variable,1.2,-,N/A,,Overcast,0,2012-11-16 10:20:00
11:50 AM,41.0,41.0,100,30.12,2.5,Variable,1.2,-,N/A,,Overcast,0,2012-11-16 10:50:00
12:00 PM,42,40,88,30.17,,West,2.3,,,,,260,2012-11-16 11:00:00
12:20 PM,42.8,41.0,93,30.12,-9999.0,Variable,1.2,-,N/A,,Overcast,0,2012-11-16 11:20:00
12:50 PM,42.8,41.0,93,30.09,-9999.0,Variable,1.2,-,N/A,,Overcast,0,2012-11-16 11:50:00
1:00 PM,42,40,88,30.14,2,WNW,2.3,,,,Mist,290,2012-11-16 12:00:00
1:20 PM,42.8,41.0,93,30.09,2.5,Variable,1.2,-,N/A,,Overcast,0,2012-11-16 12:20:00
1:50 PM,42.8,41.0,93,30.09,2.5,Variable,1.2,-,N/A,,Overcast,0,2012-11-16 12:50:00
2:00 PM,42,40,89,30.13,,North,3.5,,,,,10,2012-11-16 13:00:00
2:20 PM,42.8,41.0,93,30.09,2.5,Variable,1.2,-,N/A,,Overcast,0,2012-11-16 13:20:00
2:50 PM,42.8,41.0,93,30.06,-9999.0,Calm,Calm,-,N/A,,Overcast,0,2012-11-16 13:50:00
3:00 PM,43,40,84,30.11,,North,2.3,,,,,10,2012-11-16 14:00:00
3:20 PM,42.8,41.0,93,30.06,-9999.0,Variable,2.3,-,N/A,,Overcast,0,2012-11-16 14:20:00
3:50 PM,42.8,41.0,93,30.06,-9999.0,Variable,2.3,-,N/A,,Overcast,0,2012-11-16 14:50:00
4:20 PM,42.8,41.0,93,30.06,-9999.0,Variable,2.3,-,N/A,,Mostly Cloudy,0,2012-11-16 15:20:00
4:50 PM,42.8,41.0,93,30.06,-9999.0,Variable,3.5,-,N/A,,Overcast,0,2012-11-16 15:50:00
5:00 PM,42,40,90,30.10,,East,3.5,,,,,90,2012-11-16 16:00:00
5:20 PM,42.8,41.0,93,30.06,2.5,Variable,1.2,-,N/A,,Overcast,0,2012-11-16 16:20:00
5:50 PM,41.0,41.0,100,30.06,2.5,Variable,3.5,-,N/A,,Overcast,0,2012-11-16 16:50:00
6:00 PM,42,40,91,30.10,,NNE,3.5,,,,,30,2012-11-16 17:00:00
6:20 PM,41.0,41.0,100,30.06,-9999.0,Variable,3.5,-,N/A,,Overcast,0,2012-11-16 17:20:00
6:50 PM,41.0,41.0,100,30.06,-9999.0,Variable,2.3,-,N/A,,Overcast,0,2012-11-16 17:50:00
7:00 PM,42,40,90,30.11,2,ENE,2.3,,,,Mist,60,2012-11-16 18:00:00
7:20 PM,41.0,41.0,100,30.06,2.2,Variable,2.3,-,N/A,,Overcast,0,2012-11-16 18:20:00
7:50 PM,41.0,41.0,100,30.06,1.9,Variable,1.2,-,N/A,,Overcast,0,2012-11-16 18:50:00
8:00 PM,42,40,91,30.11,,SE,2.3,,,,,140,2012-11-16 19:00:00
8:20 PM,41.0,41.0,100,30.06,1.6,Variable,2.3,-,N/A,,Overcast,0,2012-11-16 19:20:00
8:50 PM,41.0,39.2,93,30.06,1.6,Variable,2.3,-,N/A,,Overcast,0,2012-11-16 19:50:00
9:00 PM,41,40,96,30.11,,SE,2.3,,,,,130,2012-11-16 20:00:00
9:20 PM,41.0,39.2,93,30.06,1.6,Variable,2.3,-,N/A,,Overcast,0,2012-11-16 20:20:00
9:50 PM,41.0,39.2,93,30.06,1.2,Variable,2.3,-,N/A,,Overcast,0,2012-11-16 20:50:00
10:20 PM,41.0,39.2,93,30.06,1.1,Variable,2.3,-,N/A,,Overcast,0,2012-11-16 21:20:00
10:50 PM,41.0,39.2,93,30.06,0.9,Variable,1.2,-,N/A,,Overcast,0,2012-11-16 21:50:00
11:00 PM,41,40,95,30.10,,ESE,2.3,,,,,110,2012-11-16 22:00:00
11:20 PM,41.0,39.2,93,30.06,0.8,Variable,2.3,-,N/A,,Overcast,0,2012-11-16 22:20:00
11:50 PM,41.0,39.2,93,30.06,0.7,SE,2.3,-,N/A,,Overcast,140,2012-11-16 22:50:00